Time,TemperatureF,DewpointF,PressureIn,WindDirection,WindDirectionDegrees,WindSpeedMPH,WindSpeedGustMPH,Humidity,HourlyPrecipIn,Conditions,Clouds,dailyrainin,SoftwareType,DateUTC
2013-08-01 00:00:00,55.0,48.0,-100.00,North,-999,-999.0,-999.0,76,0.00,,,-99.99,,2013-08-01 07:00:00,
2013-08-01 00:55:00,55.0,48.0,-100.00,North,-999,-999.0,-999.0,76,0.00,,,-99.99,,2013-08-01 07:55:00,
2013-08-01 01:00:00,54.0,48.0,-100.00,North,-999,-999.0,-999.0,78,0.00,,,-99.99,,2013-08-01 08:00:00,
2013-08-01 02:00:00,53.0,48.0,-100.00,North,-999,-999.0,-999.0,83,0.00,,,-99.99,,2013-08-01 09:00:00,
2013-08-01 03:00:00,53.0,49.0,-100.00,North,-999,-999.0,-999.0,84,0.00,,,-99.99,,2013-08-01 10:00:00,
2013-08-01 06:00:00,53.0,48.0,-100.00,North,-999,-999.0,-999.0,84,0.00,,,-99.99,,2013-08-01 13:00:00,
2013-08-01 07:00:00,53.0,48.0,-100.00,North,-999,-999.0,-999.0,85,0.00,,,-99.99,,2013-08-01 14:00:00,
2013-08-01 08:00:00,56.0,49.0,-100.00,North,-999,-999.0,-999.0,76,0.00,,,-99.99,,2013-08-01 15:00:00,
2013-08-01 09:00:00,60.0,49.0,-100.00,North,-999,-999.0,-999.0,67,0.00,,,-99.99,,2013-08-01 16:00:00,
2013-08-01 09:56:00,60.0,49.0,-100.00,North,-999,-999.0,-999.0,67,0.00,,,-99.99,,2013-08-01 16:56:00,
2013-08-01 10:00:00,64.0,49.0,-100.00,North,-999,-999.0,-999.0,56,0.00,,,-99.99,,2013-08-01 17:00:00,
2013-08-01 11:00:00,70.0,48.0,-100.00,North,-999,-999.0,-999.0,46,0.00,,,-99.99,,2013-08-01 18:00:00,
2013-08-01 12:00:00,78.0,49.0,-100.00,North,-999,-999.0,-999.0,36,0.00,,,-99.99,,2013-08-01 19:00:00,
2013-08-01 13:00:00,78.0,48.0,-100.00,North,-999,-999.0,-999.0,34,0.00,,,-99.99,,2013-08-01 20:00:00,
2013-08-01 14:00:00,82.0,47.0,-100.00,North,-999,-999.0,-999.0,29,0.00,,,-99.99,,2013-08-01 21:00:00,
2013-08-01 15:00:00,83.0,41.0,-100.00,North,-999,-999.0,-999.0,22,0.00,,,-99.99,,2013-08-01 22:00:00,
2013-08-01 15:58:00,83.0,41.0,-100.00,North,-999,-999.0,-999.0,22,0.00,,,-99.99,,2013-08-01 22:58:00,
2013-08-01 17:33:00,82.0,-99.9,-100.00,North,-999,-999.0,-999.0,21,0.00,,,-99.99,,2013-08-02 00:33:00,
2013-08-01 17:51:00,82.0,40.0,-100.00,North,-999,-999.0,-999.0,22,0.00,,,-99.99,,2013-08-02 00:51:00,
2013-08-01 17:57:00,82.0,40.0,-100.00,North,-999,-999.0,-999.0,22,0.00,,,-99.99,,2013-08-02 00:57:00,
2013-08-01 18:00:00,77.0,40.0,-100.00,North,-999,-999.0,-999.0,27,0.00,,,-99.99,,2013-08-02 01:00:00,
2013-08-01 18:41:00,77.0,40.0,-100.00,North,-999,-999.0,-999.0,27,0.00,,,-99.99,,2013-08-02 01:41:00,
2013-08-01 18:48:00,77.0,40.0,-100.00,North,-999,-999.0,-999.0,27,0.00,,,-99.99,,2013-08-02 01:48:00,
2013-08-01 18:58:00,77.0,40.0,-100.00,North,-999,-999.0,-999.0,27,0.00,,,-99.99,,2013-08-02 01:58:00,
2013-08-01 19:00:00,73.0,45.0,-100.00,North,-999,-999.0,-999.0,36,0.00,,,-99.99,,2013-08-02 02:00:00,
2013-08-01 19:35:00,73.0,45.0,-100.00,North,-999,-999.0,-999.0,36,0.00,,,-99.99,,2013-08-02 02:35:00,
2013-08-01 19:45:00,73.0,45.0,-100.00,North,-999,-999.0,-999.0,36,0.00,,,-99.99,,2013-08-02 02:45:00,
2013-08-01 19:52:00,73.0,45.0,-100.00,North,-999,-999.0,-999.0,36,0.00,,,-99.99,,2013-08-02 02:52:00,
2013-08-01 20:00:00,68.0,47.0,-100.00,North,-999,-999.0,-999.0,46,0.00,,,-99.99,,2013-08-02 03:00:00,
2013-08-01 20:23:00,68.0,47.0,-100.00,North,-999,-999.0,-999.0,46,0.00,,,-99.99,,2013-08-02 03:23:00,
2013-08-01 20:40:00,68.0,47.0,-100.00,North,-999,-999.0,-999.0,46,0.00,,,-99.99,,2013-08-02 03:40:00,
2013-08-01 20:57:00,68.0,47.0,-100.00,North,-999,-999.0,-999.0,46,0.00,,,-99.99,,2013-08-02 03:57:00,
2013-08-01 21:00:00,64.0,49.0,-100.00,North,-999,-999.0,-999.0,57,0.00,,,-99.99,,2013-08-02 04:00:00,
2013-08-01 21:53:00,64.0,49.0,-100.00,North,-999,-999.0,-999.0,57,0.00,,,-99.99,,2013-08-02 04:53:00,
2013-08-01 22:00:00,64.0,49.0,-100.00,North,-999,-999.0,-999.0,57,0.00,,,-99.99,,2013-08-02 05:00:00,
2013-08-01 22:53:00,64.0,49.0,-100.00,North,-999,-999.0,-999.0,57,0.00,,,-99.99,,2013-08-02 05:53:00,
2013-08-01 23:00:00,60.0,49.0,-100.00,North,-999,-999.0,-999.0,67,0.00,,,-99.99,,2013-08-02 06:00:00,
2013-08-01 23:22:00,60.0,49.0,-100.00,North,-999,-999.0,-999.0,67,0.00,,,-99.99,,2013-08-02 06:22:00,
2013-08-01 23:33:00,60.0,49.0,-100.00,North,-999,-999.0,-999.0,67,0.00,,,-99.99,,2013-08-02 06:33:00,
2013-08-01 23:52:00,60.0,49.0,-100.00,North,-999,-999.0,-999.0,67,0.00,,,-99.99,,2013-08-02 06:52:00,